User: anonymous   Login
Location: Hepcat Sky Observatory
(29.9800°N, 95.6500°W)
Time: 14:50:09
(UTC-05:00)
Language:

Cosmos 1602 Rocket - Orbit

View from above orbital plane
View from above orbital plane
View from above satellite
View from above satellite

Ground track
Ground track

The orbit data is extracted from the following two-line orbital elements,

1 15332U 84105B   18145.71962550 +.00000052 +00000-0 +33980-5 0  9991
2 15332 082.5365 227.8845 0020158 324.2544 200.9620 14.83353323796276
Epoch (UTC): 25 May 2018 17:16:15
Eccentricity: 0.0020158
inclination: 82.5365°
perigee height: 604 km
apogee height: 633 km
right ascension of ascending node: 227.8845°
argument of perigee: 324.2544°
revolutions per day: 14.83353323
mean anomaly at epoch: 200.9620°
orbit number at epoch: 79627

The dashed part of the orbit path shows where the satellite is in the earth's shadow,  

DLR